Retour au catalogue

SL-14 R/B

ActifPO
NORAD 19791·ROCKET BODY·🇷🇺 Russia

Lancé Feb 10, 1989 depuis Plesetsk Cosmodrome

Loading…

Prochains Passages (prochaines 24 heures)

TLE

FraisSource: Space-Track

Époque: Sep 14, 2026, 23:17 UTC

1 19791U 89009G   26257.97063858 -.00000011  00000-0 -13146-3 0  9993
2 19791  82.6084  75.9016 0035644  99.8430  67.3296 12.54882416721813

Suivez SL-14 R/B en temps réel avec AllMySat

Download on the App Store